Regional Weather Roundup
Issued by NWS

Home | Current Version | Previous Version | Text Only | Print | Product List | Glossary Off
Versions: 1 2 3 4 5 6 7 8 9 10 11 12 13 14 15 16 17 18 19 20 21 22 23 24 25 26 27 28 29 30 31 32 33 34 35 36 37 38 39 40 41 42 43 44 45 46 47 48 49 50

000
ASUS44 KMEG 291200
RWRTN
TENNESSEE HOURLY STATE WEATHER ROUNDUP
NATIONAL WEATHER SERVICE MEMPHIS TN
700 AM CDT MON AUG 29 2016

TNZ002-004-019-021-049-052-054-088>092-291300-
WEST TENNESSEE

CITY           SKY/WX    TMP DP  RH WIND       PRES   REMARKS
MEMPHIS INTL   PTCLDY    79  71  76 E6        30.09R
NWS MEMPHIS      N/A     75 N/A N/A MISG        N/A
JACKSON        CLEAR     74  72  93 E5        30.11R
DYERSBURG      CLEAR     73  72  94 MISG      30.11R
UNION CITY     CLEAR     72  72 100 CALM      30.12R
PARIS          CLEAR     70  70 100 E3        30.14R
LEXINGTON      CLEAR     72  72 100 CALM      30.11R
$$

TNZ008-025-027-028-033-062-065-066-291300-
NORTH MIDDLE TENNESSEE

CITY           SKY/WX    TMP DP  RH WIND       PRES   REMARKS
NASHVILLE      PTCLDY    73  69  87 NE3       30.15R
CLARKSVILLE    CLEAR     71  68  90 CALM      30.14R
SMYRNA         CLEAR     72  70  94 MISG      30.15
COOKEVILLE     CLEAR     70  70 100 CALM      30.16R
CROSSVILLE     CLEAR     68  67  96 CALM      30.22R FOG
$$

TNZ061-075-076-078-094-096-097-291300-
SOUTH MIDDLE TENNESSEE

CITY           SKY/WX    TMP DP  RH WIND       PRES   REMARKS
SHELBYVILLE    CLEAR     72  72 100 CALM      30.15R
$$

TNZ017-018-042-046-047-291300-
NORTHEAST TENNESSEE

CITY           SKY/WX    TMP DP  RH WIND       PRES   REMARKS
TRI CITIES     MOSUNNY   67  65  93 CALM      30.22R
$$

TNZ012-013-036-069-073-074-291300-
CENTRAL EAST TENNESSEE

CITY           SKY/WX    TMP DP  RH WIND       PRES   REMARKS
KNOXVILLE      MOSUNNY   71  68  90 CALM      30.16R
OAK RIDGE      PTCLDY    71  68  90 CALM      30.19
GATLINBURG     SUNNY     64  64 100 CALM      30.18R
$$

TNZ083-085-099-291300-
SOUTHEAST TENNESSEE

CITY           SKY/WX    TMP DP  RH WIND       PRES   REMARKS
CHATTANOOGA    FOG       71  70  96 CALM      30.16R VSB 1/4
$$

SKY/WX REPORTED AS FAIR MEANS FEW OR NO CLOUDS BELOW
12 THOUSAND FEET.





USA.gov is the U.S. government's official web portal to all federal, state and local government web resources and services.